Poplar Bluff, MO

7:14 PM CDT on July 27, 2016 (GMT -0500)
Poplar Bluff Municipal

Weather History for KPOF - August, 2013

Change the Weather History Date:

Tuesday, August 6, 2013

  Actual Average Record
Temperature  
Mean Temperature 76 °F -  
Max Temperature 84 °F 87 °F 106 °F (1934)
Min Temperature 71 °F 66 °F 55 °F (1948)
Cooling Degree Days 12    
Growing Degree Days 26 (Base 50)    
Moisture  
Dew Point 72 °F    
Average Humidity 87    
Maximum Humidity 94    
Minimum Humidity 72    
Precipitation  
Precipitation 0.90 in - - ()
Sea Level Pressure  
Sea Level Pressure 29.90 in    
Wind  
Wind Speed 4 mph (WSW)    
Max Wind Speed 22 mph    
Max Gust Speed 29 mph    
Visibility 6 miles    
Events Rain , Thunderstorm    
Averages and records for this station are not official NWS values.
T = Trace of Precipitation, MM = Missing Value Source: NWS Daily Summary

Daily Weather History Graph

Daily Weather History Graph

Search for Another Location

Airport or City:

Trip Planner

Search our weather history database for the weather conditions in past years. The results will help you decide how hot, cold, wet, or windy it might be!

Date:

Astronomy

Aug. 06, 2013 Rise Set
Actual Time 6:11 AM CDT 8:02 PM CDT
Civil Twilight 5:43 AM CDT 8:30 PM CDT
Nautical Twilight 5:08 AM CDT 9:04 PM CDT
Astronomical Twilight 4:32 AM CDT 9:40 PM CDT
Moon 6:01 AM CDT (8/6) 7:39 PM CDT (8/6)
Length of Visible Light 14h 47m
Length of Day
13h 51m
Waning Crescent, 0% of the Moon is Illuminated
Aug 6
Waning Crescent
Aug 6
New
Aug 14
First Quarter
Aug 20
Full
Aug 28
Last Quarter

Hourly Weather History & Observations

Time (CDT) Temp. Heat Index Dew Point Humidity Pressure Visibility Wind Dir Wind Speed Gust Speed Precip Events Conditions
12:14 AM 75.2 °F - 71.6 °F 89% 29.91 in 2.5 mi NE 3.5 mph - N/A   Overcast
12:32 AM 75.2 °F - 73.4 °F 94% 29.91 in 1.5 mi Calm Calm - N/A   Overcast
12:53 AM 75.0 °F - 73.0 °F 94% 29.90 in 0.8 mi Calm Calm - N/A   Mist
1:30 AM 75.2 °F - 73.4 °F 94% 29.89 in 1.0 mi SE 3.5 mph - N/A   Mist
1:53 AM 75.9 °F - 73.0 °F 91% 29.86 in 1.8 mi SE 3.5 mph - N/A   Overcast
2:00 AM 75.2 °F - 73.4 °F 94% 29.86 in 2.5 mi SSE 6.9 mph - N/A   Overcast
2:43 AM 75.2 °F - 73.4 °F 94% 29.86 in 3.0 mi Calm Calm - N/A   Overcast
2:53 AM 75.9 °F - 73.0 °F 91% 29.86 in 2.5 mi Calm Calm - N/A   Overcast
3:02 AM 75.2 °F - 73.4 °F 94% 29.87 in 3.0 mi Calm Calm - N/A   Overcast
3:28 AM 75.2 °F - 73.4 °F 94% 29.88 in 2.0 mi Calm Calm - N/A   Overcast
3:31 AM 75.2 °F - 73.4 °F 94% 29.88 in 1.8 mi West 3.5 mph - N/A Thunderstorm Overcast
3:47 AM 75.2 °F - 73.4 °F 94% 29.88 in 0.8 mi Calm Calm - 0.00 in Rain Light Rain
3:53 AM 75.9 °F - 73.9 °F 94% 29.87 in 0.8 mi Calm Calm - 0.00 in Rain Light Rain
4:33 AM 75.2 °F - 73.4 °F 94% 29.88 in 1.0 mi ENE 3.5 mph - 0.03 in Rain Light Rain
4:53 AM 75.9 °F - 73.0 °F 91% 29.86 in 1.5 mi East 3.5 mph - 0.04 in Rain Light Rain
5:04 AM 75.2 °F - 73.4 °F 94% 29.87 in 2.5 mi Calm Calm - 0.01 in Rain Light Rain
5:23 AM 75.2 °F - 73.4 °F 94% 29.89 in 3.0 mi NE 5.8 mph - 0.03 in Rain Light Rain
5:29 AM 75.2 °F - 73.4 °F 94% 29.89 in 2.5 mi NE 4.6 mph - 0.04 in Rain , Thunderstorm Light Rain
5:46 AM 75.2 °F - 73.4 °F 94% 29.90 in 3.0 mi Calm Calm - 0.06 in Rain Light Rain
5:53 AM 75.9 °F - 73.0 °F 91% 29.88 in 3.0 mi Calm Calm - 0.07 in Rain Light Rain
6:10 AM 75.2 °F - 73.4 °F 94% 29.92 in 3.0 mi NW 10.4 mph - 0.02 in Rain , Thunderstorm Rain
6:15 AM 75.2 °F - 73.4 °F 94% 29.93 in 5.0 mi NW 9.2 mph - 0.03 in Rain , Thunderstorm Light Thunderstorms and Rain
6:35 AM 73.4 °F - 69.8 °F 88% 29.91 in 10.0 mi NNW 10.4 mph 18.4 mph 0.04 in Rain , Thunderstorm Light Thunderstorms and Rain
6:53 AM 73.0 °F - 70.0 °F 90% 29.91 in 7.0 mi WNW 13.8 mph 20.7 mph 0.06 in Rain , Thunderstorm Light Thunderstorms and Rain
7:01 AM 73.4 °F - 69.8 °F 88% 29.91 in 1.8 mi Variable 4.6 mph 19.6 mph 0.05 in Rain , Thunderstorm Heavy Thunderstorms and Rain
7:11 AM 71.6 °F - 69.8 °F 94% 29.92 in 3.0 mi NW 9.2 mph 17.3 mph 0.16 in Rain , Thunderstorm Thunderstorms and Rain
7:53 AM 72.0 °F - 68.0 °F 87% 29.97 in 5.0 mi WNW 13.8 mph 19.6 mph 0.25 in Rain , Thunderstorm Thunderstorms and Rain
8:10 AM 71.6 °F - 66.2 °F 83% 29.96 in 1.8 mi NW 21.9 mph 28.8 mph 0.16 in Rain , Thunderstorm Heavy Thunderstorms and Rain
8:17 AM 71.6 °F - 66.2 °F 83% 29.96 in 3.0 mi NNW 15.0 mph 28.8 mph 0.23 in Rain , Thunderstorm Rain
8:26 AM 71.6 °F - 66.2 °F 83% 29.96 in 9.0 mi NW 10.4 mph - 0.24 in Rain , Thunderstorm Light Rain
8:53 AM 71.1 °F - 66.9 °F 87% 29.95 in 2.5 mi Calm Calm - 0.30 in Rain Rain
9:07 AM 71.6 °F - 68.0 °F 88% 29.95 in 4.0 mi Calm Calm - 0.03 in Rain Light Rain
9:53 AM 71.1 °F - 68.0 °F 90% 29.92 in 6.0 mi Calm Calm - 0.09 in Rain Light Rain
10:53 AM 72.0 °F - 69.1 °F 91% 29.93 in 10.0 mi West 8.1 mph - 0.03 in Rain Light Rain
11:53 AM 72.0 °F - 69.1 °F 91% 29.92 in 9.0 mi South 5.8 mph - 0.04 in Rain Light Rain
12:53 PM 73.9 °F - 70.0 °F 87% 29.90 in 10.0 mi SSW 10.4 mph 18.4 mph 0.02 in   Scattered Clouds
1:53 PM 79.0 °F - 71.1 °F 77% 29.89 in 10.0 mi SSW 6.9 mph - N/A   Partly Cloudy
2:53 PM 80.1 °F 83.8 °F 72.0 °F 76% 29.89 in 10.0 mi Calm Calm - N/A   Partly Cloudy
3:32 PM 82.4 °F 88.2 °F 73.4 °F 74% 29.90 in 10.0 mi WSW 4.6 mph - N/A   Mostly Cloudy
3:41 PM 82.4 °F 88.2 °F 73.4 °F 74% 29.90 in 10.0 mi Calm Calm - N/A   Mostly Cloudy
3:53 PM 82.0 °F 87.4 °F 73.0 °F 74% 29.88 in 10.0 mi SW 4.6 mph - N/A   Scattered Clouds
4:32 PM 82.4 °F 88.2 °F 73.4 °F 74% 29.89 in 10.0 mi SSE 3.5 mph - N/A   Mostly Cloudy
4:50 PM 82.4 °F 88.2 °F 73.4 °F 74% 29.89 in 10.0 mi Variable 4.6 mph - N/A   Scattered Clouds
4:53 PM 82.9 °F 88.8 °F 73.0 °F 72% 29.88 in 10.0 mi Variable 4.6 mph - N/A   Scattered Clouds
5:05 PM 82.4 °F 89.5 °F 75.2 °F 79% 29.89 in 10.0 mi SSE 8.1 mph - N/A   Mostly Cloudy
5:21 PM 82.4 °F 88.2 °F 73.4 °F 74% 29.89 in 10.0 mi South 8.1 mph - N/A   Scattered Clouds
5:53 PM 82.0 °F 87.4 °F 73.0 °F 74% 29.87 in 10.0 mi South 8.1 mph - N/A   Clear
6:53 PM 81.0 °F 85.8 °F 73.0 °F 77% 29.88 in 10.0 mi SSW 5.8 mph - N/A   Clear
7:53 PM 78.1 °F - 73.0 °F 84% 29.88 in 10.0 mi SSW 6.9 mph - N/A   Clear
8:53 PM 77.0 °F - 73.0 °F 88% 29.88 in 10.0 mi Calm Calm - N/A   Clear
9:53 PM 75.0 °F - 72.0 °F 90% 29.89 in 10.0 mi Calm Calm - N/A   Clear
10:53 PM 75.0 °F - 72.0 °F 90% 29.89 in 8.0 mi Calm Calm - N/A   Partly Cloudy
11:53 PM 75.0 °F - 72.0 °F 90% 29.89 in 10.0 mi Calm Calm - N/A   Mostly Cloudy